Location: Batang Balui
(2.7000°N, 113.7833°E)
Time: 00:31:17
(UTC+00:00)

NOSS 3-1 (C) - Pass Details

Date: 03 December 2021
Orbit: 714 x 1494 km, 63.4° (Epoch: 14 January)

Event Time Altitude Azimuth Distance (km) Brightness Sun altitude
Rises 10:37:00 0° 344° (NNW) 4,400 6.8 -6.2°
Reaches altitude 10° 10:39:51 10° 348° (NNW) 3,498 6.3 -6.8°
Maximum altitude 10:48:36 63° 68° (ENE) 1,632 4.4 -8.9°
Drops below altitude 10° 10:57:36 10° 146° (SSE) 3,602 6.3 -10.9°
Sets 11:00:33 0° 149° (SSE) 4,537 6.9 -11.6°
